Tracking 19293 objects as of 21-Nov-2018
HD Live streaming from Space Station
objects crossing your sky now

METEOR 3-2

Track METEOR 3-2 now!
10-day predictions
METEOR 3-2 is classified as:


NORAD ID: 19336
Int'l Code: 1988-064A
Perigee: 1,190.5 km
Apogee: 1,214.8 km
Inclination: 82.5 °
Period: 109.3 minutes
Semi major axis: 7573 km
RCS: 6.8041 m2 (large)
Launch date: July 26, 1988
Source: Commonwealth of Independent States (former USSR) (CIS)
Launch site: PLESETSK MISSILE AND SPACE COMPLEX (PKMTR)
aabbcc
Your satellite tracking list
Your tracking list is empty




NASA's NSSDC Master Catalog

Two Line Element Set (TLE):
1 19336U 88064A   18324.93544470 +.00000169 +00000-0 +40601-3 0  9992
2 19336 082.5404 128.5031 0016048 280.7675 190.3532 13.17182243457608
Source of the keplerian elements: AFSPC